EZY61BG LFLL-EGKK

Flight info

Callsign EZY61BG
Flight time 1h 9m
Altitude 34000
Route BUSIL DCT AMORO DCT MOMIL DCT BAGBI DCT SIZZA DCT LAULY DCT BRY DCT CLM DCT KOPOR DCT KESAX DCT KUNAV
Aircraft A320/M-SDE2E3FGHIRWXY/LB1

Departure

Time 2026-05-05 10:31
Airport Lyon Saint-Exupéry Airport (LFLL)

Arrival

Time 2026-05-05 11:40
Airport London Gatwick Airport (EGKK)
Time Latitude Longitude Altitude Speed Heading
2026-05-05 10:11 45.71594 5.08266 803 ft 0 kts 194°
2026-05-05 10:23 45.71598 5.08267 802 ft 3 kts 194°
2026-05-05 10:23 45.71624 5.08277 802 ft 3 kts 195°
2026-05-05 10:24 45.71632 5.08280 802 ft 0 kts 195°
2026-05-05 10:25 45.71628 5.08301 802 ft 5 kts 78°
2026-05-05 10:26 45.71676 5.08386 802 ft 15 kts 66°
2026-05-05 10:26 45.71735 5.08485 803 ft 14 kts 359°
2026-05-05 10:26 45.71826 5.08474 802 ft 13 kts 355°
2026-05-05 10:26 45.71924 5.08463 802 ft 16 kts 355°
2026-05-05 10:27 45.72051 5.08447 802 ft 18 kts 354°
2026-05-05 10:27 45.72169 5.08431 802 ft 16 kts 354°
2026-05-05 10:27 45.72274 5.08417 802 ft 14 kts 354°
2026-05-05 10:27 45.72367 5.08405 802 ft 13 kts 355°
2026-05-05 10:28 45.72451 5.08397 802 ft 12 kts 356°
2026-05-05 10:28 45.72539 5.08390 802 ft 13 kts 354°
2026-05-05 10:28 45.72644 5.08376 802 ft 19 kts 355°
2026-05-05 10:28 45.72796 5.08355 802 ft 24 kts 355°
2026-05-05 10:29 45.72970 5.08335 802 ft 25 kts 355°
2026-05-05 10:29 45.73149 5.08315 802 ft 27 kts 355°
2026-05-05 10:29 45.73348 5.08294 802 ft 29 kts 355°
2026-05-05 10:29 45.73550 5.08265 802 ft 28 kts 354°
2026-05-05 10:30 45.73716 5.08316 802 ft 25 kts 66°
2026-05-05 10:30 45.73698 5.08555 798 ft 26 kts 103°
2026-05-05 10:30 45.73602 5.08722 793 ft 25 kts 174°
2026-05-05 10:30 45.73248 5.08770 799 ft 84 kts 175°
2026-05-05 10:31 45.72463 5.08865 801 ft 141 kts 175°
2026-05-05 10:31 45.71385 5.09000 1148 ft 158 kts 174°
2026-05-05 10:31 45.70313 5.09119 1978 ft 157 kts 177°
2026-05-05 10:31 45.69171 5.09254 2507 ft 175 kts 178°
2026-05-05 10:32 45.67881 5.09409 2872 ft 198 kts 176°
2026-05-05 10:32 45.66473 5.09742 3426 ft 212 kts 157°
2026-05-05 10:32 45.65414 5.11233 4218 ft 226 kts 116°
2026-05-05 10:32 45.65267 5.13501 4952 ft 240 kts 74°
2026-05-05 10:33 45.66166 5.15483 5684 ft 242 kts 36°
2026-05-05 10:33 45.67643 5.16599 6457 ft 241 kts 17°
2026-05-05 10:33 45.69242 5.17331 7207 ft 243 kts 13°
2026-05-05 10:33 45.70886 5.17989 7814 ft 253 kts
2026-05-05 10:34 45.72684 5.17924 8150 ft 270 kts 339°
2026-05-05 10:34 45.74423 5.16753 8671 ft 284 kts 330°
2026-05-05 10:34 45.76242 5.15535 9493 ft 292 kts 333°
2026-05-05 10:34 45.78139 5.14385 10213 ft 304 kts 335°
2026-05-05 10:35 45.80169 5.13182 10513 ft 327 kts 335°
2026-05-05 10:35 45.82314 5.11910 11028 ft 338 kts 335°
2026-05-05 10:35 45.84507 5.10601 11757 ft 344 kts 335°
2026-05-05 10:35 45.86724 5.09260 12504 ft 347 kts 335°
2026-05-05 10:36 45.88958 5.07888 13203 ft 351 kts 334°
2026-05-05 10:36 45.91212 5.06487 13889 ft 355 kts 334°
2026-05-05 10:36 45.93393 5.04801 14491 ft 357 kts 325°
2026-05-05 10:36 45.95510 5.02896 15107 ft 361 kts 327°
2026-05-05 10:37 45.97824 5.01415 15701 ft 368 kts 339°
2026-05-05 10:37 46.00250 5.00207 16313 ft 371 kts 339°
2026-05-05 10:37 46.02705 4.98999 16947 ft 375 kts 339°
2026-05-05 10:37 46.05189 4.97784 17640 ft 379 kts 339°
2026-05-05 10:38 46.07671 4.96567 18284 ft 384 kts 339°
2026-05-05 10:38 46.10211 4.95312 18819 ft 388 kts 339°
2026-05-05 10:38 46.12781 4.94040 19311 ft 392 kts 339°
2026-05-05 10:38 46.15376 4.92757 19802 ft 397 kts 339°
2026-05-05 10:39 46.17998 4.91460 20285 ft 401 kts 339°
2026-05-05 10:39 46.20652 4.90144 20782 ft 405 kts 339°
2026-05-05 10:39 46.23328 4.88812 21246 ft 409 kts 339°
2026-05-05 10:39 46.26033 4.87467 21727 ft 413 kts 339°
2026-05-05 10:40 46.28769 4.86107 22234 ft 417 kts 339°
2026-05-05 10:40 46.31526 4.84737 22708 ft 421 kts 339°
2026-05-05 10:40 46.34309 4.83352 23181 ft 425 kts 340°
2026-05-05 10:40 46.37123 4.81951 23616 ft 429 kts 340°
2026-05-05 10:41 46.39956 4.80543 24048 ft 432 kts 339°
2026-05-05 10:41 46.42808 4.79122 24461 ft 434 kts 339°
2026-05-05 10:41 46.45671 4.77687 24850 ft 437 kts 339°
2026-05-05 10:41 46.48549 4.76240 25251 ft 439 kts 340°
2026-05-05 10:42 46.54357 4.73326 26001 ft 444 kts 340°
2026-05-05 10:42 46.57286 4.71861 26359 ft 446 kts 340°
2026-05-05 10:42 46.60231 4.70385 26716 ft 449 kts 340°
2026-05-05 10:43 46.63188 4.68893 27061 ft 451 kts 340°
2026-05-05 10:43 46.66164 4.67394 27398 ft 454 kts 340°
2026-05-05 10:43 46.69156 4.65888 27750 ft 456 kts 340°
2026-05-05 10:43 46.72164 4.64372 28088 ft 459 kts 340°
2026-05-05 10:44 46.75188 4.62850 28421 ft 461 kts 340°
2026-05-05 10:44 46.78225 4.61318 28760 ft 463 kts 340°
2026-05-05 10:44 46.81279 4.59766 29107 ft 466 kts 339°
2026-05-05 10:44 46.84311 4.58068 29456 ft 468 kts 337°
2026-05-05 10:45 46.87314 4.56186 29755 ft 470 kts 335°
2026-05-05 10:45 46.90287 4.54190 30028 ft 472 kts 334°
2026-05-05 10:45 46.93264 4.52131 30281 ft 474 kts 333°
2026-05-05 10:45 46.96249 4.50071 30554 ft 475 kts 334°
2026-05-05 10:46 46.99260 4.48031 30761 ft 477 kts 335°
2026-05-05 10:46 47.02294 4.46020 30998 ft 479 kts 335°
2026-05-05 10:46 47.05343 4.44034 31245 ft 480 kts 335°
2026-05-05 10:46 47.08399 4.42057 31604 ft 479 kts 335°
2026-05-05 10:47 47.11440 4.40083 31943 ft 477 kts 335°
2026-05-05 10:47 47.14469 4.38110 32295 ft 476 kts 335°
2026-05-05 10:47 47.17488 4.36137 32637 ft 475 kts 334°
2026-05-05 10:47 47.20503 4.34159 32985 ft 474 kts 334°
2026-05-05 10:48 47.23464 4.32207 33330 ft 472 kts 334°
2026-05-05 10:48 47.26461 4.30225 33674 ft 471 kts 334°
2026-05-05 10:48 47.29445 4.28242 33843 ft 469 kts 334°
2026-05-05 10:49 47.35306 4.24353 33854 ft 458 kts 334°
2026-05-05 10:49 47.41117 4.20512 33845 ft 457 kts 334°
2026-05-05 10:50 47.46918 4.16660 33854 ft 457 kts 334°
2026-05-05 10:50 47.51758 4.13419 33843 ft 455 kts 334°
2026-05-05 10:51 47.57490 4.09574 33834 ft 455 kts 334°
2026-05-05 10:51 47.63268 4.05713 33828 ft 455 kts 334°
2026-05-05 10:52 47.69043 4.01843 33816 ft 455 kts 335°
2026-05-05 10:52 47.74812 3.97976 33822 ft 455 kts 334°
2026-05-05 10:53 47.80592 3.94090 33826 ft 456 kts 334°
2026-05-05 10:53 47.86381 3.90190 33831 ft 456 kts 334°
2026-05-05 10:54 47.92160 3.86290 33826 ft 456 kts 334°
2026-05-05 10:54 47.97927 3.82378 33806 ft 455 kts 334°
2026-05-05 10:55 48.03694 3.78445 33815 ft 456 kts 334°
2026-05-05 10:55 48.09461 3.74504 33820 ft 456 kts 334°
2026-05-05 10:56 48.15032 3.70187 33823 ft 453 kts 323°
2026-05-05 10:56 48.19647 3.63880 33813 ft 448 kts 309°
2026-05-05 10:57 48.23877 3.56998 33811 ft 449 kts 310°
2026-05-05 10:57 48.28114 3.50100 33825 ft 450 kts 310°
2026-05-05 10:58 48.32344 3.43188 33854 ft 449 kts 310°
2026-05-05 10:58 48.36569 3.36268 33846 ft 449 kts 310°
2026-05-05 10:59 48.41154 3.29885 33831 ft 453 kts 324°
2026-05-05 10:59 48.46656 3.25689 33815 ft 455 kts 336°
2026-05-05 11:00 48.52100 3.22223 33822 ft 456 kts 336°
2026-05-05 11:00 48.57937 3.18484 33822 ft 455 kts 335°
2026-05-05 11:01 48.63773 3.14735 33824 ft 456 kts 335°
2026-05-05 11:01 48.69608 3.10981 33829 ft 456 kts 335°
2026-05-05 11:02 48.75414 3.07242 33838 ft 456 kts 335°
2026-05-05 11:02 48.81262 3.03475 33856 ft 456 kts 335°
2026-05-05 11:03 48.86944 2.99237 33839 ft 454 kts 328°
2026-05-05 11:03 48.92427 2.94441 33838 ft 454 kts 328°
2026-05-05 11:04 48.97911 2.89655 33835 ft 454 kts 328°
2026-05-05 11:04 49.03390 2.84855 33834 ft 454 kts 328°
2026-05-05 11:05 49.08859 2.80041 33861 ft 454 kts 328°
2026-05-05 11:05 49.14327 2.75207 33874 ft 454 kts 328°
2026-05-05 11:06 49.19784 2.70381 33861 ft 452 kts 328°
2026-05-05 11:06 49.25225 2.65554 33880 ft 452 kts 328°
2026-05-05 11:07 49.30664 2.60712 33870 ft 452 kts 328°
2026-05-05 11:07 49.36098 2.55869 33873 ft 452 kts 328°
2026-05-05 11:08 49.41531 2.51010 33877 ft 452 kts 328°
2026-05-05 11:08 49.46966 2.46146 33875 ft 452 kts 328°
2026-05-05 11:09 49.52268 2.41009 33868 ft 449 kts 318°
2026-05-05 11:09 49.56999 2.34766 33871 ft 448 kts 316°
2026-05-05 11:10 49.61720 2.28497 33875 ft 448 kts 316°
2026-05-05 11:10 49.66436 2.22221 33898 ft 448 kts 316°
2026-05-05 11:11 49.71144 2.15932 33898 ft 447 kts 316°
2026-05-05 11:11 49.75838 2.09646 33900 ft 446 kts 316°
2026-05-05 11:12 49.80484 2.03413 33906 ft 444 kts 316°
2026-05-05 11:12 49.85136 1.97169 33656 ft 438 kts 316°
2026-05-05 11:12 49.87424 1.94090 33380 ft 433 kts 316°
2026-05-05 11:13 49.89687 1.91032 33104 ft 430 kts 316°
2026-05-05 11:13 49.91934 1.87988 32831 ft 428 kts 316°
2026-05-05 11:13 49.94173 1.84952 32556 ft 426 kts 317°
2026-05-05 11:13 49.96391 1.81943 32177 ft 422 kts 317°
2026-05-05 11:14 49.98594 1.78957 31674 ft 419 kts 316°
2026-05-05 11:14 50.00784 1.75992 31181 ft 416 kts 316°
2026-05-05 11:14 50.02962 1.73038 30684 ft 414 kts 316°
2026-05-05 11:14 50.05121 1.70104 30225 ft 411 kts 316°
2026-05-05 11:15 50.07268 1.67176 29717 ft 409 kts 316°
2026-05-05 11:15 50.09392 1.64281 29282 ft 404 kts 317°
2026-05-05 11:15 50.11497 1.61423 28847 ft 399 kts 317°
2026-05-05 11:15 50.13582 1.58598 28427 ft 395 kts 317°
2026-05-05 11:16 50.15620 1.55837 28016 ft 392 kts 317°
2026-05-05 11:16 50.17667 1.53062 27599 ft 388 kts 317°
2026-05-05 11:16 50.19693 1.50308 27181 ft 385 kts 317°
2026-05-05 11:16 50.21702 1.47577 26765 ft 381 kts 317°
2026-05-05 11:17 50.23693 1.44859 26343 ft 378 kts 317°
2026-05-05 11:17 50.25664 1.42159 25921 ft 375 kts 317°
2026-05-05 11:17 50.27620 1.39472 25488 ft 373 kts 317°
2026-05-05 11:17 50.29564 1.36801 25058 ft 371 kts 318°
2026-05-05 11:18 50.31502 1.34142 24608 ft 370 kts 318°
2026-05-05 11:18 50.33433 1.31491 24157 ft 369 kts 318°
2026-05-05 11:18 50.35365 1.28843 23710 ft 369 kts 318°
2026-05-05 11:18 50.37293 1.26201 23209 ft 368 kts 318°
2026-05-05 11:19 50.39215 1.23558 22756 ft 366 kts 318°
2026-05-05 11:19 50.41120 1.20932 22308 ft 364 kts 318°
2026-05-05 11:19 50.43012 1.18316 21867 ft 362 kts 319°
2026-05-05 11:19 50.44890 1.15713 21432 ft 360 kts 319°
2026-05-05 11:20 50.46759 1.13122 21008 ft 358 kts 319°
2026-05-05 11:20 50.48614 1.10551 20667 ft 353 kts 319°
2026-05-05 11:20 50.50458 1.07998 20241 ft 352 kts 319°
2026-05-05 11:20 50.52220 1.05362 19912 ft 348 kts 313°
2026-05-05 11:21 50.53863 1.02581 19542 ft 346 kts 312°
2026-05-05 11:21 50.55450 0.99749 19151 ft 344 kts 311°
2026-05-05 11:21 50.56996 0.96884 18805 ft 342 kts 310°
2026-05-05 11:21 50.58514 0.94025 18465 ft 339 kts 310°
2026-05-05 11:22 50.60016 0.91187 18157 ft 335 kts 310°
2026-05-05 11:22 50.61506 0.88379 17775 ft 333 kts 310°
2026-05-05 11:22 50.62988 0.85600 17389 ft 331 kts 311°
2026-05-05 11:22 50.64468 0.82835 17003 ft 329 kts 311°
2026-05-05 11:23 50.65921 0.80067 16647 ft 327 kts 306°
2026-05-05 11:23 50.66943 0.76946 16290 ft 325 kts 293°
2026-05-05 11:23 50.67774 0.73640 15940 ft 323 kts 292°
2026-05-05 11:23 50.68577 0.70338 15582 ft 322 kts 291°
2026-05-05 11:24 50.69374 0.67056 15253 ft 320 kts 291°
2026-05-05 11:24 50.70168 0.63796 14926 ft 317 kts 291°
2026-05-05 11:24 50.70955 0.60550 14588 ft 316 kts 292°
2026-05-05 11:24 50.71730 0.57315 14234 ft 315 kts 291°
2026-05-05 11:25 50.72494 0.54082 13902 ft 314 kts 291°
2026-05-05 11:25 50.73252 0.50861 13555 ft 312 kts 291°
2026-05-05 11:25 50.74006 0.47653 13204 ft 310 kts 291°
2026-05-05 11:25 50.74756 0.44475 12865 ft 308 kts 291°
2026-05-05 11:26 50.75495 0.41313 12497 ft 306 kts 291°
2026-05-05 11:26 50.76234 0.38169 12164 ft 304 kts 291°
2026-05-05 11:26 50.76973 0.35059 11827 ft 302 kts 291°
2026-05-05 11:26 50.77705 0.31964 11460 ft 300 kts 291°
2026-05-05 11:27 50.78430 0.28882 11111 ft 298 kts 291°
2026-05-05 11:27 50.79151 0.25816 10774 ft 296 kts 291°
2026-05-05 11:27 50.79878 0.22785 10441 ft 294 kts 291°
2026-05-05 11:27 50.80603 0.19779 10132 ft 291 kts 291°
2026-05-05 11:28 50.81317 0.16798 9801 ft 289 kts 291°
2026-05-05 11:28 50.82029 0.13840 9427 ft 287 kts 291°
2026-05-05 11:28 50.82738 0.10895 9047 ft 285 kts 291°
2026-05-05 11:28 50.83436 0.07970 8664 ft 283 kts 291°
2026-05-05 11:29 50.84131 0.05064 8288 ft 282 kts 291°
2026-05-05 11:29 50.84822 0.02177 7901 ft 280 kts 292°
2026-05-05 11:29 50.85499 -0.00704 7525 ft 278 kts 291°
2026-05-05 11:29 50.86167 -0.03569 7128 ft 277 kts 291°
2026-05-05 11:30 50.86826 -0.06421 6762 ft 275 kts 291°
2026-05-05 11:30 50.87485 -0.09255 6391 ft 273 kts 291°
2026-05-05 11:30 50.88141 -0.12067 6043 ft 271 kts 291°
2026-05-05 11:30 50.88800 -0.14873 5749 ft 271 kts 291°
2026-05-05 11:31 50.89427 -0.17651 5408 ft 268 kts 291°
2026-05-05 11:31 50.90023 -0.20380 5276 ft 257 kts 291°
2026-05-05 11:31 50.90603 -0.22989 5149 ft 246 kts 291°
2026-05-05 11:31 50.91163 -0.25540 5035 ft 245 kts 291°
2026-05-05 11:32 50.91706 -0.28093 4991 ft 244 kts 291°
2026-05-05 11:32 50.92251 -0.30636 4665 ft 243 kts 291°
2026-05-05 11:32 50.92790 -0.33164 4355 ft 241 kts 291°
2026-05-05 11:32 50.93316 -0.35671 4067 ft 239 kts 291°
2026-05-05 11:33 50.93833 -0.38160 3997 ft 237 kts 294°
2026-05-05 11:33 50.94707 -0.40278 3904 ft 226 kts 323°
2026-05-05 11:33 50.96042 -0.41503 3565 ft 222 kts 339°
2026-05-05 11:33 50.97464 -0.42439 3247 ft 221 kts 341°
2026-05-05 11:34 50.98886 -0.43324 3046 ft 219 kts 341°
2026-05-05 11:34 51.00296 -0.44189 3001 ft 212 kts 341°
2026-05-05 11:34 51.01620 -0.45006 2999 ft 197 kts 341°
2026-05-05 11:34 51.02850 -0.45773 3004 ft 184 kts 341°
2026-05-05 11:35 51.04024 -0.46520 3004 ft 180 kts 341°
2026-05-05 11:35 51.05183 -0.47257 3008 ft 179 kts 341°
2026-05-05 11:35 51.06377 -0.47637 2996 ft 177 kts 11°
2026-05-05 11:35 51.07473 -0.46809 3016 ft 177 kts 36°
2026-05-05 11:36 51.08419 -0.45557 3011 ft 176 kts 40°
2026-05-05 11:36 51.09330 -0.44248 3006 ft 177 kts 41°
2026-05-05 11:36 51.10233 -0.42937 2888 ft 175 kts 41°
2026-05-05 11:36 51.11133 -0.41623 2668 ft 176 kts 42°
2026-05-05 11:37 51.11844 -0.40063 2525 ft 174 kts 66°
2026-05-05 11:37 51.12153 -0.38169 2513 ft 180 kts 74°
2026-05-05 11:37 51.12424 -0.36226 2213 ft 180 kts 74°
2026-05-05 11:37 51.12693 -0.34297 1973 ft 178 kts 74°
2026-05-05 11:38 51.12972 -0.32305 1733 ft 192 kts 74°
2026-05-05 11:38 51.13256 -0.30259 1464 ft 187 kts 73°
2026-05-05 11:38 51.13530 -0.28284 1210 ft 176 kts 75°
2026-05-05 11:38 51.13765 -0.26588 994 ft 163 kts 74°
2026-05-05 11:39 51.13993 -0.24940 789 ft 145 kts 75°
2026-05-05 11:39 51.14202 -0.23430 611 ft 134 kts 75°
2026-05-05 11:39 51.14406 -0.21988 401 ft 136 kts 76°
2026-05-05 11:39 51.14606 -0.20551 237 ft 131 kts 75°
2026-05-05 11:40 51.14785 -0.19262 216 ft 98 kts 77°
2026-05-05 11:40 51.14896 -0.18456 206 ft 57 kts 77°
2026-05-05 11:40 51.14979 -0.17971 213 ft 33 kts 60°
2026-05-05 11:40 51.15105 -0.17762 210 ft 19 kts
2026-05-05 11:41 51.15143 -0.17768 205 ft 2 kts 354°
2026-05-05 11:41 51.15148 -0.17769 205 ft 0 kts 354°
2026-05-05 11:41 51.15150 -0.17769 205 ft 3 kts 354°
2026-05-05 11:42 51.15189 -0.17777 205 ft 11 kts 352°
2026-05-05 11:42 51.15256 -0.17744 207 ft 11 kts 87°
2026-05-05 11:42 51.15279 -0.17623 208 ft 12 kts 80°
2026-05-05 11:42 51.15297 -0.17478 204 ft 13 kts 79°
2026-05-05 11:43 51.15302 -0.17432 210 ft 0 kts 81°
2026-05-05 11:43 51.15305 -0.17408 214 ft 10 kts 79°
2026-05-05 11:44 51.15373 -0.17381 215 ft 12 kts 346°
2026-05-05 11:44 51.15464 -0.17413 209 ft 14 kts 348°
2026-05-05 11:44 51.15569 -0.17450 204 ft 16 kts 347°
2026-05-05 11:44 51.15687 -0.17491 209 ft 18 kts 348°
2026-05-05 11:45 51.15774 -0.17430 206 ft 17 kts 77°
2026-05-05 11:45 51.15800 -0.17241 206 ft 18 kts 76°
2026-05-05 11:45 51.15846 -0.17083 208 ft 11 kts 13°
2026-05-05 11:45 51.15927 -0.17067 209 ft 12 kts 336°
2026-05-05 11:46 51.15973 -0.17136 211 ft 3 kts 313°
2026-05-05 11:46 51.15981 -0.17148 210 ft 0 kts 315°